Hourly Weather Roundup
Issued by NWS Central Illinois

Home | Current Version | Previous Version | Text Only | Print | Product List | Glossary On
Versions: 1 2 3 4 5 6 7 8 9 10 11 12 13 14 15 16 17 18 19 20 21 22 23 24 25 26 27 28 29 30 31 32 33 34 35 36 37 38 39 40 41 42 43 44 45 46 47 48 49 50
000
NZUS43 KILX 281710
HWRILX

AREA WEATHER ROUNDUP
NATIONAL WEATHER SERVICE, LINCOLN IL
1100 AM CST FRI NOV 28 2014


CITY           SKY/WX    TMP DP  RH WIND       PRES   REMARKS
BLOOMINGTON    PTSUNNY   32  27  82 S23G30    30.13F WCI  19
CHAMPAIGN      MOSUNNY   31  25  78 S22G28    30.19F WCI  18
DECATUR        PTSUNNY   31  25  78 S14       30.17F WCI  21
FLORA          SUNNY     33  28  80 S15       30.27F WCI  23
GALESBURG      PTSUNNY   28  23  82 SE14G20   30.05F WCI  16
JACKSONVILLE   MOSUNNY   36  28  73 S18G25    30.09F WCI  26
LACON          PTSUNNY   31  24  75 S15G22    30.08F WCI  20
LAWRENCEVILLE  SUNNY     34  28  79 S16       30.31F WCI  24
LITCHFIELD     MOSUNNY   33  27  79 S21       30.15F WCI  20
$$


CITY           SKY/WX    TMP DP  RH WIND       PRES   REMARKS
LINCOLN        PTSUNNY   32  26  78 S17       30.15F WCI  21
MACOMB         MOSUNNY   30  26  83 S18       30.07F WCI  18
MATTOON        MOSUNNY   32  25  75 S15G23    30.21F WCI  22
MT CARMEL AP   SUNNY     36  28  75 S15       30.29F WCI  26
OLNEY-NOBLE AP SUNNY     34  28  80 S9G18     30.27F WCI  26
PARIS          CLOUDY    32  26  80 S15       30.25F WCI  21
PEORIA         PTSUNNY   31  23  72 S22       30.10F WCI  18
PONTIAC        MOSUNNY   31  25  76 SE21      30.15F WCI  19
RANTOUL        MOSUNNY   32  25  74 S17G24    30.18F WCI  21
ROBINSON       MOSUNNY   34  27  76 S16       30.30F WCI  24
SPRINGFIELD    MOSUNNY   33  27  78 S21G29    30.13F WCI  21
TAYLORVILLE    PTSUNNY   32  28  86 S20G25    30.15F WCI  20
$$

...REGIONAL REPORTS...


CITY           SKY/WX    TMP DP  RH WIND       PRES   REMARKS
CHICAGO O`HARE PTSUNNY   25  16  68 S13       30.16F WCI  14
KANKAKEE       MOSUNNY   29  16  58 SE13      30.20F WCI  18
MOLINE         CLOUDY    27  20  75 SE13      30.05F WCI  16
MOUNT VERNON   SUNNY     36  28  75 S17       30.26F WCI  25
PITTSFIELD     SUNNY     38  30  73 S12       30.07F WCI  30
QUINCY         SUNNY     38  27  64 S14       30.03F WCI  30
ROCKFORD       CLOUDY    24  14  65 SE18G24   30.11F WCI  10
$$


CITY           SKY/WX    TMP DP  RH WIND       PRES   REMARKS
BURLINGTON     MOSUNNY   31  24  75 S13       30.01F WCI  21
CEDAR RAPIDS   PTSUNNY   25  19  78 S10       29.99F WCI  15
DES MOINES     PTSUNNY   33  24  69 S8        29.91F WCI  26
KIRKSVILLE     SUNNY     41  29  62 S14       29.95F WCI  33
OTTUMWA        MOSUNNY   32  24  72 S14       29.95F WCI  22
ST LOUIS       MOSUNNY   42  30  62 S17G23    30.13F WCI  34
$$


CITY           SKY/WX    TMP DP  RH WIND       PRES   REMARKS
TERRE HAUTE    PTSUNNY   30  22  72 S14       30.28F WCI  19
EVANSVILLE     SUNNY     36  25  64 S13       30.33F WCI  27
INDIANAPOLIS   CLOUDY    27  14  58 S13       30.27F WCI  16
LAFAYETTE      CLOUDY    27  15  61 S10       30.25F WCI  17
MADISON        PTSUNNY   21  13  71 S16       30.07F WCI   7
MILWAUKEE      CLOUDY    22  14  71 S10       30.15F WCI  11
$$




USA.gov is the U.S. government's official web portal to all federal, state and local government web resources and services.